Location: *
(43.4667°N, 11.6833°E)
Time: 07:34:20
(UTC+00:00)

USA 238 - Pass Details

Date: 19 July 2019
Orbit: 1038 x 1174 km, 63.4° (Epoch: 12 August)

Event Time Altitude Azimuth Distance (km) Brightness Sun altitude
Rises 23:28:35 0° 324° (NW) 3,942 7.4 -25.7°
Reaches altitude 10° 23:31:17 10° 328° (NNW) 3,000 6.7 -25.7°
Maximum altitude 23:38:23 62° 48° (NE) 1,278 4.2 -25.6°
Enters shadow 23:43:18 22° 123° (ESE) 2,282 5.2 -25.6°
